EW2461 Weather Reports


time (UTC)temp
C
wind
direction
speed
KPH
gust
KPH
rain 1hr
cm
rain 24hr
cm
rain mn
cm
humidity
%
barometer
mb
20260507201029 12 252 4.8 14.5 0.00 2.39 2.39 84 1002.8
20260507194848 11 237 6.4 14.5 0.00 2.39 2.39 87 1002.9
20260507193816 12 235 4.8 14.5 0.00 2.39 2.39 86 1002.9
20260507192825 12 252 6.4 14.5 0.00 2.39 2.39 87 1003.0
20260507190659 12 273 4.8 14.5 0.00 2.39 2.39 88 1003.0
20260507185650 13 277 3.2 12.9 0.00 2.39 2.39 90 1002.9
20260507182438 12 284 4.8 11.3 0.00 2.39 2.39 92 1002.8
20260507181425 12 286 4.8 12.9 0.00 2.39 2.39 93 1002.9
20260507180351 11 265 4.8 12.9 0.00 2.39 2.39 93 1002.7
20260507175325 11 275 3.2 12.9 0.00 2.39 2.39 93 1002.7
20260507174347 11 337 3.2 11.3 0.00 2.39 2.39 94 1002.5
20260507172224 11 306 1.6 6.4 0.00 2.39 2.39 94 1002.8
20260507171242 11 269 1.6 8.0 0.00 2.39 2.39 94 1002.9
20260507165054 10 262 0.0 4.8 0.00 2.39 2.39 94 1003.0
20260507164113 10 355 0.0 4.8 0.00 2.39 2.39 94 1003.0
20260507163113 10 317 0.0 4.8 0.00 2.39 2.39 94 1003.3
20260507162041 9 317 0.0 6.4 0.00 2.39 2.39 94 1003.4
20260507161100 8 355 1.6 9.7 0.00 2.39 2.39 94 1002.5
20260507160041 8 289 1.6 11.3 0.08 2.39 2.39 94 1003.7
20260507155050 8 315 3.2 11.3 0.10 2.39 2.39 94 1003.6
20260507152922 8 242 1.6 8.0 0.08 2.34 2.34 94 1003.5
20260507151934 8 275 0.0 8.0 0.13 2.34 2.34 94 1002.8
20260507150906 8 314 0.0 9.7 0.33 2.31 2.31 94 1002.9
20260507145902 8 269 1.6 9.7 0.79 2.21 2.24 93 1003.5
20260507144837 8 242 3.2 8.0 0.28 2.16 2.16 93 1003.8
20260507143807 8 223 1.6 4.8 0.18 2.08 2.08 94 1003.6
20260507142744 9 279 1.6 4.8 0.00 2.06 2.06 94 1003.6
20260507141747 8 220 0.0 1.6 0.00 2.06 2.06 94 1003.2
20260507140811 8 268 0.0 0.0 0.00 2.03 2.06 93 1003.1
20260507135827 8 259 0.0 3.2 0.08 2.03 2.03 94 1003.3
20260507134830 8 156 0.0 3.2 0.20 2.03 2.03 94 1003.3
20260507133803 8 251 1.6 8.0 0.48 1.96 1.96 93 1003.6
20260507132736 8 149 0.0 8.0 0.30 1.88 1.88 94 1004.3
20260507131756 8 242 1.6 4.8 0.38 1.83 1.83 94 1004.5
20260507130749 8 169 0.0 4.8 0.41 1.78 1.78 94 1004.1
20260507125748 8 169 0.0 4.8 0.64 1.68 1.68 93 1003.9
20260507124738 8 175 1.6 9.7 0.91 1.57 1.57 93 1004.6
20260507122631 8 265 3.2 11.3 1.12 1.24 1.27 93 1004.7
20260507121632 8 234 1.6 20.9 0.38 1.14 1.14 93 1004.3
20260507115532 8 267 6.4 17.7 0.94 0.79 0.81 93 1005.1
20260507114549 9 231 3.2 14.5 0.00 0.74 0.74 93 1005.0
20260507113553 10 229 4.8 14.5 0.00 0.74 0.74 93 1004.6
20260507112609 10 257 4.8 12.9 0.00 0.74 0.74 93 1004.3
20260507111631 10 178 4.8 16.1 0.00 0.74 0.74 93 1004.0
20260507110602 10 190 4.8 19.3 0.00 0.74 0.74 93 1004.5
20260507105545 10 138 3.2 19.3 0.00 0.74 0.74 93 1004.6
20260507102226 10 218 4.8 19.3 0.00 0.74 0.74 93 1004.6
20260507100012 10 163 6.4 24.1 0.00 0.74 0.74 93 1004.8
20260507094948 10 211 4.8 19.3 0.00 0.74 0.74 93 1004.4
20260507093923 10 183 6.4 19.3 0.00 0.74 0.74 93 1004.0
20260507091816 10 209 4.8 19.3 0.00 0.74 0.74 93 1004.3
20260507084505 11 158 9.7 29.0 0.00 0.71 0.71 93 1004.9
20260507083526 11 173 8.0 25.7 0.00 0.71 0.71 93 1004.8
20260507080249 11 212 9.7 35.4 0.00 0.71 0.71 93 1004.7
20260507075259 11 236 8.0 25.7 0.00 0.71 0.71 92 1004.8
20260507074226 11 154 8.0 33.8 0.00 0.71 0.71 92 1004.8
20260507073242 11 114 8.0 37.0 0.00 0.71 0.71 92 1005.0
20260507072257 12 213 11.3 37.0 0.00 0.71 0.71 92 1005.1
20260507071319 12 212 9.7 30.6 0.13 0.71 0.71 92 1004.9
20260507070335 12 132 11.3 35.4 0.10 0.69 0.69 92 1005.1
20260507065305 12 194 11.3 41.8 0.08 0.66 0.66 92 1005.1
20260507064311 12 208 9.7 46.7 0.10 0.64 0.64 92 1005.1
20260507063330 13 223 11.3 46.7 0.28 0.64 0.64 92 1005.3
20260507062306 13 228 9.7 40.2 0.36 0.58 0.58 92 1005.3
20260507061233 13 146 11.3 40.2 0.43 0.48 0.51 92 1005.5
20260507055127 13 193 8.0 29.0 0.18 0.43 0.43 92 1005.6
20260507054056 13 100 11.3 24.1 0.43 0.41 0.41 92 1005.9
20260507051915 13 166 11.3 33.8 0.46 0.30 0.30 91 1006.6
20260507050926 13 200 11.3 37.0 0.84 0.23 0.25 91 1006.4
20260507045943 13 155 11.3 37.0 0.58 0.13 0.13 91 1006.7
20260507043753 14 165 9.7 35.4 0.00 0.00 0.00 91 1007.3
20260507042801 14 161 11.3 35.4 0.00 0.00 0.00 90 1007.6
20260507040652 14 153 9.7 27.4 0.00 0.00 0.00 91 1007.9
20260507034448 13 148 9.7 30.6 0.00 0.00 0.00 90 1008.2
20260507032348 14 172 9.7 30.6 0.00 0.00 0.00 88 1008.8
20260507031401 15 185 9.7 29.0 0.00 0.00 0.00 86 1009.0
20260507030409 15 117 9.7 29.0 0.00 0.00 0.00 86 1009.3
20260507025350 15 179 8.0 25.7 0.00 0.00 0.00 85 1009.7
20260507024334 15 192 6.4 38.6 0.00 0.00 0.00 85 1009.8
20260507023342 15 147 8.0 38.6 0.00 0.00 0.00 84 1010.1
20260507022353 15 125 8.0 32.2 0.00 0.00 0.00 84 1010.3
20260507021406 15 142 9.7 32.2 0.00 0.00 0.00 84 1010.4
20260507020355 15 78 9.7 27.4 0.00 0.00 0.00 85 1010.5
20260507015349 15 172 9.7 27.4 0.00 0.00 0.00 85 1011.0
20260507014332 15 190 8.0 27.4 0.00 0.00 0.00 85 1011.2
20260507013344 15 156 8.0 32.2 0.00 0.00 0.00 85 1011.1
20260507012322 14 200 8.0 32.2 0.00 0.00 0.00 85 1011.3
20260507011249 14 210 11.3 33.8 0.00 0.00 0.00 84 1011.6
20260507010257 15 138 9.7 33.8 0.00 0.00 0.00 84 1011.6
20260507004204 15 238 8.0 32.2 0.00 0.00 0.00 85 1011.9
20260507003150 15 209 6.4 30.6 0.00 0.00 0.00 85 1012.1
20260507002126 14 160 8.0 33.8 0.00 0.00 0.00 85 1011.1
20260507001103 14 203 11.3 33.8 0.00 0.00 0.00 85 1011.4
20260506233823 15 170 11.3 29.0 0.00 0.00 0.00 85 1012.4
20260506232846 15 211 11.3 29.0 0.00 0.00 0.00 84 1012.7
20260506231847 15 172 9.7 32.2 0.00 0.00 0.00 84 1012.7
20260506225748 15 169 9.7 27.4 0.00 0.00 0.00 85 1012.6
20260506224752 15 136 9.7 29.0 0.00 0.00 0.00 84 1012.5
20260506223758 15 202 11.3 29.0 0.00 0.00 0.00 84 1012.5
20260506222748 15 173 9.7 27.4 0.00 0.00 0.00 84 1012.4
20260506221747 15 186 9.7 27.4 0.00 0.00 0.00 84 1012.6
20260506220804 15 117 11.3 37.0 0.00 0.00 0.00 83 1012.9
20260506215827 15 151 9.7 37.0 0.00 0.00 0.00 83 1012.9
20260506213627 15 225 11.3 32.2 0.00 0.00 0.00 83 1012.8
20260506212628 15 173 11.3 32.2 0.00 0.00 0.00 82 1012.7
20260506211629 15 160 9.7 29.0 0.00 0.00 0.00 83 1012.8
20260506210653 15 113 8.0 37.0 0.00 0.00 0.00 82 1013.0
20260506205712 15 199 9.7 40.2 0.00 0.00 0.00 83 1013.4
20260506204650 15 180 11.3 40.2 0.00 0.00 0.00 82 1013.3
20260506203635 16 141 9.7 33.8 0.00 0.00 0.00 81 1013.2
20260506202646 16 200 11.3 33.8 0.00 0.00 0.00 81 1013.2